Theta_e
321 321 320 321 320 321 321 321 321 321 321 321 321 321 321 321 321 321 321 321 321 321 321 321 322 322 323 323 323 323 322 318 314 312 309 311 327 347 352 353 363 367 363 351 349 341 337 338 341 349 343 340 339 336 339 340 339 329 319 312 309 310 314 318 319 321 323 322 326 329 331 331 327 332 340 340 334 338 335 337 338 339 338 340 338 339 338 338
320 320 321 320 320 321 321 321 321 320 320 320 320 320 320 320 320 320 321 321 321 321 321 321 321 322 322 323 324 324 321 317 311 313 314 326 349 355 357 363 367 366 355 344 340 337 336 336 342 343 337 333 343 333 341 332 338 324 316 314 311 312 318 324 326 325 325 324 327 329 331 332 331 331 337 329 331 332 330 333 336 334 335 337 337 337 336 335
320 320 320 321 321 321 321 321 320 320 320 320 320 320 320 320 320 320 320 321 321 321 321 321 321 322 323 323 323 324 319 313 315 311 314 342 343 356 357 364 366 365 343 340 340 339 337 337 344 340 336 332 335 329 336 332 334 327 319 313 312 320 323 327 331 328 330 331 327 328 330 332 334 333 336 330 329 332 328 328 331 331 331 334 335 336 335 334
320 320 320 321 321 321 320 320 320 320 319 319 319 320 320 320 320 320 320 320 320 321 321 321 321 323 323 323 324 322 318 317 309 311 316 343 346 355 359 363 367 359 329 333 338 340 347 346 343 341 336 330 333 336 328 333 326 327 321 315 317 323 324 329 333 332 332 333 329 328 330 330 333 335 332 331 327 327 330 334 333 332 332 334 335 335 334 333
320 320 320 321 321 320 320 320 320 319 319 319 319 319 319 319 319 319 320 320 320 320 321 321 321 323 323 324 324 322 309 300 304 315 319 353 352 354 361 364 367 348 329 327 333 341 345 342 340 339 335 324 329 329 328 332 333 328 323 324 324 327 326 329 334 336 333 333 329 329 327 328 338 337 332 331 324 323 329 335 336 336 336 335 334 334 334 333
320 320 320 320 320 320 320 319 319 319 318 319 319 319 318 318 319 319 319 320 320 321 321 321 322 323 324 324 321 315 307 295 310 315 359 359 355 359 364 366 367 343 332 326 320 327 340 339 335 330 327 326 325 322 325 333 334 320 322 325 327 328 327 331 335 335 333 330 328 328 330 335 330 332 333 333 328 332 341 338 338 338 338 338 338 336 334 333
320 320 320 320 320 319 319 319 318 318 318 319 318 318 318 318 318 319 319 320 320 320 321 321 323 323 324 323 316 313 301 302 311 315 359 361 361 364 369 366 356 334 330 325 323 317 321 331 329 324 328 325 324 325 328 330 332 324 318 324 327 331 329 333 335 334 332 330 329 332 337 329 329 324 332 331 334 339 347 339 340 340 339 340 337 336 335 334
319 320 320 319 319 319 319 319 318 318 318 318 318 318 318 318 319 319 319 319 319 320 321 322 323 323 323 319 316 307 306 307 313 327 362 361 360 363 358 342 334 330 326 325 320 316 319 325 322 327 323 317 318 325 328 328 329 324 321 325 328 332 333 335 335 334 332 331 334 333 329 327 330 327 333 331 334 339 342 341 340 339 338 338 337 336 336 336
319 319 319 319 319 319 319 318 318 318 318 318 317 317 318 318 319 319 319 319 319 320 321 322 322 323 324 318 306 307 305 312 320 340 345 345 342 338 336 333 331 326 322 321 320 317 316 312 318 324 312 321 326 325 326 323 316 326 325 328 331 331 335 335 333 332 332 332 334 329 327 329 333 338 330 332 335 340 342 339 339 338 337 336 337 338 337 338
319 319 319 318 318 318 318 318 318 317 317 317 317 317 318 318 318 318 318 319 319 320 322 323 323 324 319 318 305 301 311 321 342 343 341 338 330 324 321 329 327 321 317 320 318 318 315 313 316 320 323 321 323 320 325 323 315 327 326 327 329 331 334 334 331 331 333 333 333 327 326 328 335 330 322 330 335 341 341 339 338 337 336 336 337 338 339 338
319 319 318 318 318 318 318 318 317 317 317 317 317 318 317 317 317 317 318 319 319 320 322 322 324 323 316 317 303 303 318 330 335 332 338 332 327 321 320 326 323 319 314 315 318 319 319 317 320 318 322 316 311 308 323 324 325 326 327 329 328 328 332 332 331 330 330 330 333 330 326 330 333 329 326 331 336 340 337 337 337 336 336 336 337 338 339 339
319 318 318 318 317 317 317 317 317 317 317 317 317 317 316 317 317 317 318 318 320 321 322 323 323 322 318 309 300 305 318 328 333 330 332 326 322 322 321 325 321 318 313 312 316 318 318 316 319 317 310 313 309 309 315 323 327 325 328 320 321 323 325 328 329 329 330 328 333 331 327 323 326 324 332 335 340 338 337 336 336 336 336 336 337 338 338 338
319 318 317 317 317 317 317 317 317 317 317 317 316 316 316 317 317 317 318 319 320 321 323 323 323 320 315 300 302 314 316 316 331 332 331 326 321 317 319 323 320 315 313 311 312 316 319 319 320 317 315 312 309 306 311 315 314 328 325 320 318 314 314 321 331 330 328 329 333 329 307 308 319 330 332 336 337 336 336 335 336 335 336 336 337 337 338 339
319 317 317 317 317 316 316 317 317 317 317 316 315 316 317 317 317 318 319 319 321 322 323 325 319 315 310 302 307 314 316 317 331 330 329 331 320 317 313 319 321 317 321 314 316 319 320 318 319 318 314 310 308 312 308 304 319 316 320 319 312 308 306 317 326 327 326 331 332 326 308 310 316 321 325 334 336 334 333 335 335 335 336 336 336 337 337 339
318 317 317 317 316 316 316 316 316 316 315 315 315 316 316 317 318 319 320 320 321 323 324 324 316 314 309 306 315 323 346 318 321 322 329 323 319 317 313 312 315 316 317 317 317 320 319 316 315 311 308 312 312 307 303 300 306 316 308 301 305 309 306 314 325 327 324 328 332 323 307 312 317 322 325 332 335 334 332 334 335 335 336 336 336 337 337 338
317 317 316 316 316 316 316 316 315 315 315 315 315 315 316 317 318 320 321 321 323 323 321 318 318 315 307 304 318 342 314 313 313 316 323 324 318 315 316 312 312 313 314 313 316 317 318 317 312 310 308 308 304 300 297 297 297 304 305 300 304 306 307 312 320 328 328 328 329 322 310 311 313 319 331 334 334 333 331 332 334 335 336 337 337 337 337 338
317 316 317 316 315 316 316 315 314 314 315 315 315 315 316 317 319 321 323 323 322 322 321 316 320 321 305 314 320 316 314 312 311 313 320 324 318 317 317 314 316 315 315 315 321 317 314 318 311 309 303 304 300 299 298 292 292 295 306 304 303 306 305 306 312 322 326 327 322 325 317 316 315 320 331 332 333 331 330 330 332 334 335 336 337 338 338 338
316 316 316 315 315 316 315 314 314 315 315 315 314 316 315 319 321 322 322 322 322 320 318 320 317 306 307 310 308 312 314 309 309 309 314 316 320 318 317 314 312 310 307 309 310 312 312 309 304 302 297 297 301 295 293 293 297 296 301 302 303 305 308 307 307 313 326 325 321 321 321 321 323 324 324 332 332 330 329 331 332 333 334 335 336 337 338 338
316 316 315 315 315 315 315 314 314 314 314 314 315 317 319 321 317 314 314 319 309 303 302 311 303 301 298 308 310 312 315 315 312 310 309 314 315 314 314 312 309 309 305 303 306 306 303 305 300 299 297 296 297 300 297 298 299 299 301 302 302 301 302 303 310 316 327 321 317 320 318 321 323 323 324 329 331 329 329 330 330 332 333 333 334 336 338 338
316 315 315 315 315 314 314 314 314 314 314 311 309 314 315 311 305 310 315 313 308 304 311 311 311 311 311 309 310 314 317 313 308 308 309 314 313 310 310 309 305 305 303 301 300 302 305 299 295 296 298 299 299 300 301 301 301 301 304 305 303 302 303 301 302 312 327 319 319 319 321 319 320 319 321 326 331 329 328 328 328 330 332 333 334 335 337 338
315 315 315 315 314 314 314 314 314 313 312 310 308 315 312 310 304 303 307 308 309 311 309 310 313 310 310 312 314 312 309 309 309 308 311 319 309 310 306 306 301 301 297 299 302 302 302 296 296 299 300 300 299 299 300 300 300 299 297 296 295 298 296 302 303 314 326 319 312 317 318 319 320 321 321 326 329 328 328 327 328 329 331 332 333 334 335 338
315 314 315 314 314 313 314 314 313 313 311 307 310 313 317 316 317 316 310 304 309 312 312 312 313 312 315 316 317 315 312 305 308 308 312 313 310 306 303 301 298 299 297 299 297 293 294 295 301 301 301 300 300 299 299 299 299 298 297 295 295 295 296 299 306 321 324 319 309 314 316 317 318 319 321 323 328 329 331 330 330 329 330 331 333 334 335 336
314 314 313 313 313 314 314 314 312 311 307 307 310 311 311 317 315 314 313 309 306 312 311 311 311 310 312 315 317 318 310 306 303 306 308 311 306 307 302 301 299 297 300 301 299 295 296 295 299 301 300 300 300 299 298 299 298 295 295 294 292 296 296 293 300 317 320 314 309 312 314 314 307 310 314 318 324 327 331 331 330 331 330 331 333 334 334 335
314 313 313 313 314 314 313 313 312 309 305 307 309 307 314 314 313 313 311 305 305 311 312 312 313 311 311 314 315 313 309 307 305 306 314 309 305 304 304 300 299 299 298 297 298 297 297 302 303 301 301 301 299 298 298 297 295 293 296 293 294 296 296 295 298 310 315 318 310 303 299 298 302 309 311 314 319 323 327 331 329 330 332 333 334 334 335 335
313 313 313 314 313 313 313 311 308 309 309 309 309 313 313 315 316 313 311 306 304 305 315 315 317 314 315 317 316 312 308 308 306 308 313 310 304 304 303 303 301 298 298 298 298 298 298 302 302 300 300 300 299 297 298 297 294 292 294 297 297 297 300 311 312 309 300 305 311 308 294 294 297 307 311 312 313 320 322 326 326 328 330 330 331 332 334 337
312 311 312 312 312 313 312 309 308 312 313 313 315 318 319 320 319 314 307 299 298 301 307 306 318 310 318 310 312 309 308 305 307 309 312 310 316 306 306 302 301 299 297 298 299 295 299 299 301 300 299 298 298 296 297 297 293 294 297 297 296 298 304 311 307 302 297 293 303 308 297 293 296 305 311 313 311 314 318 319 321 325 327 329 330 331 332 334
311 311 311 312 313 312 311 311 314 312 311 316 317 319 319 319 319 316 311 293 295 307 302 307 310 308 314 311 309 309 297 299 309 312 312 322 310 316 302 296 301 303 301 300 296 295 301 300 299 298 298 296 298 296 299 297 295 297 298 296 297 302 306 310 308 302 297 303 302 300 298 295 294 300 311 313 311 311 314 316 317 319 322 328 331 332 332 333
311 310 311 312 313 310 312 309 310 313 314 316 319 319 318 318 321 316 301 289 293 306 302 304 308 316 313 311 310 305 305 309 304 307 312 314 311 307 305 298 300 299 303 300 294 297 301 301 300 299 297 295 296 296 302 298 299 298 299 298 297 298 299 307 307 301 295 296 290 292 301 296 295 300 312 313 309 311 313 315 317 321 325 328 331 332 333 334
311 310 310 312 311 310 310 309 308 310 315 317 318 317 318 321 315 306 296 290 302 301 315 306 316 312 309 310 308 308 306 308 304 306 309 312 311 305 302 300 299 301 300 302 297 298 302 301 301 300 298 297 297 298 298 300 300 300 298 300 300 302 302 302 299 299 295 290 289 294 297 293 290 299 309 312 310 311 313 314 319 323 325 326 328 329 331 333
310 309 310 311 309 307 308 309 306 313 316 318 316 316 319 315 309 302 296 292 303 298 307 307 306 303 305 303 303 306 306 305 308 307 307 305 306 310 308 304 302 302 302 299 299 299 302 313 312 302 301 301 301 301 298 299 301 304 298 299 296 297 297 298 295 293 290 289 290 294 299 296 291 299 305 307 311 313 314 315 319 323 325 326 328 329 330 330
309 308 309 310 308 311 311 309 314 316 317 316 316 316 314 306 301 293 292 297 304 303 307 305 303 306 303 302 299 303 305 303 306 306 304 307 304 304 304 304 300 296 294 294 298 299 300 301 303 302 312 305 302 303 303 301 301 299 295 294 294 295 294 292 290 291 287 285 289 300 302 299 293 299 307 312 316 319 317 317 318 321 322 324 326 328 329 330
309 307 308 308 311 310 311 313 315 316 315 315 318 311 307 300 296 294 295 310 299 301 300 300 304 303 302 304 302 301 302 303 305 304 301 300 299 299 299 295 296 293 290 291 296 298 300 302 301 303 317 306 300 299 300 300 298 298 296 295 291 287 287 290 287 289 288 288 300 299 302 300 300 303 311 314 316 319 322 321 320 321 322 323 325 326 327 329
307 306 308 309 309 308 310 314 315 313 315 317 313 307 300 291 290 291 297 299 299 301 302 304 302 303 302 302 300 302 305 301 302 305 302 301 301 299 298 300 297 299 293 293 295 292 295 297 299 302 301 307 300 297 297 298 296 298 299 290 288 283 281 282 281 286 285 292 297 299 301 299 302 306 311 314 316 319 323 324 324 323 323 323 324 325 327 328
307 306 305 308 308 309 312 314 313 313 313 317 311 306 297 293 296 320 301 300 303 306 305 303 302 301 302 299 298 301 300 302 302 302 302 299 297 298 301 300 300 301 298 295 297 290 292 293 299 300 297 304 303 300 298 300 298 301 295 296 293 285 287 286 283 287 286 289 295 298 298 296 300 304 315 316 318 319 322 325 325 326 325 324 324 324 326 327
306 306 306 308 308 309 309 310 311 312 312 308 305 298 294 291 295 297 299 299 300 302 303 302 302 300 300 300 299 302 303 301 302 300 298 297 296 294 298 301 305 299 297 295 298 295 296 291 297 301 302 303 303 306 303 298 298 295 296 296 295 294 293 293 286 287 287 289 293 295 298 301 303 313 319 319 319 319 323 322 324 323 326 324 323 324 325 327
304 307 308 308 310 313 311 311 311 311 310 305 302 299 296 297 302 302 303 305 304 302 301 299 297 297 295 292 295 301 304 301 301 298 298 299 296 300 303 301 302 301 298 294 295 293 293 296 300 300 303 303 303 305 306 301 295 297 299 295 297 298 298 294 300 295 294 289 292 296 300 304 307 309 312 315 316 316 319 320 321 321 323 322 322 324 325 326
309 309 308 311 310 315 312 313 314 312 310 304 299 295 298 303 306 302 323 308 308 301 296 294 296 295 295 295 294 295 300 301 300 296 298 299 301 303 303 303 304 303 301 297 298 298 293 293 295 300 302 304 304 305 304 304 301 294 294 294 300 301 297 294 289 287 285 286 287 296 298 296 298 297 309 313 312 313 316 317 319 320 322 322 322 324 325 326
312 312 318 321 318 316 314 313 315 311 304 302 299 317 308 306 310 308 309 308 304 299 294 292 298 300 295 295 295 297 299 298 296 296 296 298 298 305 303 301 304 304 303 301 299 300 296 291 293 298 301 301 301 303 302 303 304 302 300 301 298 292 293 290 290 288 285 285 284 291 298 298 297 298 305 309 310 311 312 315 318 319 321 321 322 324 325 326
312 311 310 316 318 316 314 315 315 309 303 303 295 302 308 309 310 310 312 312 303 298 295 297 295 299 295 293 296 296 298 294 295 294 297 299 297 304 303 302 303 305 304 301 298 298 297 294 291 296 300 302 298 297 293 296 301 301 302 299 301 294 288 292 292 288 289 284 285 285 294 293 302 302 306 309 310 311 313 316 316 319 321 322 322 323 324 325
311 310 310 318 317 318 316 318 310 304 300 298 295 302 304 306 309 311 309 307 301 298 299 297 299 296 298 297 297 297 297 295 294 297 297 301 299 304 304 305 302 305 302 305 299 301 298 297 289 293 297 297 295 295 297 295 296 296 297 294 294 294 296 294 294 293 290 284 283 285 287 292 297 305 310 311 311 312 315 317 317 318 320 322 322 323 324 324
313 306 312 319 320 319 319 311 307 305 303 301 305 306 308 305 308 310 312 309 303 305 299 298 295 296 297 296 299 301 297 295 298 298 297 301 297 297 303 304 304 304 301 301 299 299 296 295 292 291 293 291 294 296 302 297 296 297 296 297 296 295 296 291 289 292 292 290 285 285 286 289 296 313 313 312 312 315 317 318 319 319 321 320 321 324 324 324
308 304 311 320 320 319 310 307 305 305 305 304 301 306 307 322 314 311 307 305 304 304 303 300 300 297 297 299 298 297 296 297 298 298 300 298 302 299 304 304 302 301 300 299 300 301 300 296 296 291 292 295 297 300 302 303 301 298 297 300 295 294 291 286 285 290 293 296 294 288 290 290 304 313 314 315 315 319 320 321 320 320 320 321 322 324 324 323
306 307 317 320 321 320 308 301 308 308 305 306 310 310 311 311 310 310 308 306 305 304 301 301 302 299 301 300 298 297 297 296 299 300 300 300 302 302 304 303 302 302 299 298 302 300 327 291 290 293 290 292 296 296 299 302 300 299 297 298 298 298 297 291 292 290 291 294 292 291 291 290 301 314 316 316 319 318 318 319 319 321 322 322 322 323 323 323
311 311 312 320 322 316 308 302 301 301 304 310 311 310 312 311 309 308 307 304 302 303 301 301 301 303 301 299 298 298 299 296 298 299 300 302 303 305 304 304 304 305 301 300 298 301 297 293 290 284 282 287 292 294 295 299 298 297 297 298 301 299 298 295 296 295 295 294 292 289 286 289 303 314 315 315 316 316 317 319 319 320 321 322 322 323 323 323
311 312 313 315 320 316 309 304 303 302 305 306 306 306 308 306 309 310 308 306 305 299 301 300 303 301 299 299 298 301 302 297 295 300 301 302 305 307 304 303 307 304 306 310 316 301 295 295 290 285 283 284 285 281 287 292 293 295 298 304 306 303 300 298 297 293 290 294 294 292 288 293 300 309 311 313 313 314 315 317 320 320 320 320 320 321 322 322
308 306 311 310 313 311 312 310 310 307 305 306 304 305 306 302 304 306 307 305 303 303 301 302 301 299 298 298 298 299 301 303 298 299 299 302 302 304 304 305 309 307 324 330 324 305 295 295 288 284 281 281 284 288 294 301 294 298 301 303 305 304 303 298 295 292 289 290 294 293 296 299 300 306 309 311 311 311 313 315 316 317 318 319 319 320 321 322
310 306 307 305 309 314 308 309 310 309 305 306 303 305 304 303 304 304 306 303 305 303 300 301 301 301 298 298 297 299 300 303 301 300 301 301 302 303 302 308 307 330 332 323 317 301 295 295 294 290 290 291 292 295 297 300 297 301 303 304 305 305 304 299 296 298 297 293 289 295 299 300 300 303 309 310 311 311 313 314 315 316 317 318 318 319 324 321
300 307 311 312 304 296 305 305 307 309 311 310 305 307 304 305 303 302 304 305 304 302 301 302 300 300 299 299 297 299 299 300 299 300 302 301 302 302 303 304 304 312 314 305 312 301 294 294 296 296 297 295 294 294 296 305 304 304 305 305 305 305 304 302 303 300 299 297 291 297 298 300 301 305 310 311 312 312 313 315 316 316 317 317 317 318 318 320
313 311 311 314 307 306 306 309 315 314 312 310 306 311 303 303 301 303 302 303 301 302 300 298 301 301 299 298 296 295 298 295 299 300 299 300 300 301 301 302 305 301 303 302 303 303 297 295 297 297 297 297 300 300 301 305 304 305 305 304 305 306 305 304 304 303 302 300 297 300 299 302 304 308 311 313 314 314 315 316 316 315 315 317 317 318 318 320
308 308 309 314 311 310 311 312 313 309 304 309 305 302 304 302 300 301 304 301 300 303 304 301 301 304 302 301 299 298 299 297 298 299 301 299 299 300 299 299 300 302 301 303 304 303 298 296 310 297 296 297 301 306 305 305 303 303 305 305 304 304 305 305 305 305 306 302 304 303 302 302 306 310 312 313 314 314 314 314 315 314 315 317 317 318 319 319
313 314 313 308 305 306 314 310 308 306 301 303 303 304 306 303 301 303 304 305 301 301 304 303 304 304 304 302 302 302 303 300 301 304 302 299 301 300 299 299 300 301 299 301 301 303 301 296 298 294 296 294 298 303 305 304 304 302 302 303 303 302 301 302 303 305 303 302 302 302 299 298 302 308 313 312 312 312 312 313 315 315 316 317 316 318 318 319
312 315 316 310 305 315 306 310 306 302 299 304 310 308 305 302 302 303 302 305 304 304 306 307 305 303 301 302 302 303 304 304 303 304 303 303 303 301 302 303 301 299 296 297 299 300 296 296 297 294 292 290 295 302 302 296 295 294 296 301 304 304 304 306 306 309 310 305 302 299 297 300 305 312 310 310 311 312 313 314 315 316 316 316 317 318 319 319
Wind_Speed
15 15 14 14 14 14 15 15 15 15 15 15 15 15 15 15 15 15 15 15 14 14 15 16 16 16 16 16 17 16 16 8 6 2 1 10 6 9 5 11 16 13 14 11 10 10 4 2 2 2 4 2 1 1 1 1 1 1 0 1 1 1 1 3 4 6 1 3 3 4 4 3 3 2 2 3 2 1 3 3 2 3 3 4 5 13 15 15
15 15 15 14 14 15 15 15 14 14 14 15 15 15 15 15 15 15 15 14 14 15 15 15 15 15 15 15 16 16 13 4 4 3 15 3 4 11 10 14 16 15 13 10 12 8 9 4 3 4 5 1 1 0 0 1 1 1 1 1 2 3 3 3 2 5 2 2 4 4 5 4 2 5 3 3 2 3 3 3 3 4 5 9 12 14 16 15
15 15 15 14 15 14 14 14 14 14 14 14 14 15 15 15 15 15 14 14 14 14 15 15 14 14 15 15 14 14 9 3 1 3 9 12 9 10 12 15 16 16 9 7 10 12 11 11 8 5 1 0 0 1 1 0 1 2 2 2 4 5 2 3 2 4 5 1 4 5 4 5 2 3 2 2 5 4 6 6 2 4 5 10 12 15 15 15
15 15 15 15 15 15 14 14 14 14 14 14 14 14 14 14 14 14 14 14 14 14 14 14 14 14 14 15 13 9 3 2 1 2 3 2 15 13 12 15 15 11 4 4 4 3 3 6 8 5 2 0 2 1 1 2 1 1 1 3 3 1 1 2 3 4 2 0 3 3 2 2 3 2 4 4 5 5 5 7 10 11 11 12 14 15 15 15
15 15 15 15 15 14 14 14 14 14 14 14 14 14 14 14 14 14 14 14 14 14 14 14 14 14 14 13 14 3 1 2 2 2 4 3 11 14 13 14 15 7 5 3 5 2 4 6 5 1 1 2 1 0 2 1 2 2 6 4 2 1 0 3 4 1 2 3 3 3 6 5 2 1 4 7 7 7 10 10 9 9 12 15 15 15 15 16
15 15 15 15 14 14 14 14 14 14 14 14 14 14 14 14 14 14 14 14 14 14 14 13 13 14 14 14 3 2 0 3 1 2 4 7 14 14 12 13 13 6 2 3 3 4 7 2 4 1 0 0 2 2 2 3 4 2 3 3 3 2 2 0 2 1 5 3 4 3 3 2 5 1 3 4 10 2 1 3 8 12 14 15 16 16 15 16
15 15 15 15 14 14 14 14 14 13 14 14 14 14 14 13 14 13 14 13 13 13 13 13 12 14 13 9 2 2 1 5 2 7 7 12 15 16 13 12 10 6 3 2 1 3 1 4 2 2 1 0 3 3 4 3 3 2 5 1 2 4 4 2 3 4 3 7 5 3 2 2 3 3 1 5 9 2 3 4 10 11 11 13 15 16 18 18
15 15 15 14 14 14 14 14 14 14 14 14 14 14 14 14 13 13 13 13 13 13 12 12 12 12 11 4 0 2 2 3 6 2 10 15 14 14 13 7 9 6 5 6 5 2 3 4 3 2 1 3 2 2 1 2 2 3 4 3 1 2 2 1 3 4 3 1 1 3 3 4 6 3 1 6 10 3 1 1 9 12 12 13 15 16 14 14
15 15 15 14 14 14 14 14 14 14 14 14 14 14 14 13 13 13 13 12 12 12 12 12 11 10 7 1 1 1 1 5 3 5 10 11 10 11 13 4 4 8 4 3 3 4 4 4 2 4 4 1 2 2 2 2 5 6 8 1 1 0 1 0 3 3 3 2 3 3 4 2 2 3 4 9 8 4 2 5 9 12 13 14 14 16 15 15
16 16 15 15 14 14 14 14 14 14 14 14 14 13 14 13 13 12 12 12 12 11 11 11 10 10 3 0 1 2 3 1 3 4 10 12 10 9 5 8 7 6 4 4 3 4 5 6 4 4 2 2 2 4 2 5 4 4 4 4 2 1 0 0 4 3 2 1 3 4 3 2 1 5 7 2 5 5 6 6 8 11 14 14 13 13 14 15
16 16 15 14 14 14 14 14 14 14 14 14 13 12 14 13 12 12 12 12 11 11 10 10 8 8 1 0 2 4 2 4 1 4 8 11 11 10 7 8 8 7 5 2 6 9 6 3 2 1 1 4 1 3 4 5 3 3 3 3 2 4 1 1 0 2 2 1 5 3 3 0 0 2 9 7 2 7 8 7 8 10 11 12 13 13 12 13
16 16 15 15 14 14 14 14 14 14 14 13 13 14 13 13 12 12 11 10 11 10 8 7 7 3 1 2 2 5 2 2 1 3 6 8 5 6 6 8 8 7 9 6 7 8 6 3 2 1 2 1 1 1 2 5 0 1 4 1 2 2 1 1 4 3 4 1 5 2 1 3 2 5 8 2 3 5 8 8 9 9 10 11 11 11 10 11
16 16 15 14 14 15 14 14 14 14 14 13 14 13 13 12 12 11 10 10 8 8 8 6 4 1 0 1 8 9 3 1 2 5 3 1 2 1 5 5 8 5 8 5 3 2 2 3 1 0 4 1 2 3 0 3 0 3 3 1 3 4 4 5 0 2 5 0 5 3 3 6 8 13 2 1 7 6 7 8 8 7 8 8 9 9 10 9
16 16 15 14 14 14 14 13 14 14 14 15 14 13 13 12 12 11 10 10 10 9 7 5 1 1 1 4 7 4 3 0 3 3 1 2 1 1 3 3 3 2 0 4 2 2 3 4 5 5 0 3 4 2 3 5 4 2 1 3 0 1 3 3 1 3 4 1 5 1 1 8 7 7 6 3 7 9 8 8 8 7 6 7 7 8 9 10
17 16 15 14 15 14 14 13 14 14 14 14 14 13 13 13 13 12 11 9 9 6 4 2 2 0 0 7 6 8 4 2 1 4 5 4 2 0 3 3 3 4 5 4 1 2 4 2 2 0 3 1 1 3 4 4 4 1 2 3 4 2 5 6 1 7 7 1 1 3 1 8 8 9 4 3 6 7 8 7 8 6 7 7 7 8 8 9
17 15 15 14 14 14 13 13 14 14 14 14 13 14 15 14 12 11 9 8 7 6 0 1 0 0 2 4 1 4 2 1 3 4 3 2 4 2 3 8 3 3 1 3 3 2 1 3 1 2 2 1 1 1 4 6 3 4 1 3 2 0 4 6 1 2 1 4 1 5 5 4 3 3 4 1 7 6 6 6 7 7 7 7 7 7 7 7
16 15 12 13 14 13 14 13 13 14 14 14 15 14 13 12 10 8 7 6 2 1 1 1 0 1 2 2 1 0 2 3 2 1 1 2 4 3 1 2 1 1 2 2 0 2 2 0 2 2 3 1 1 3 3 4 5 1 2 2 3 1 1 2 3 2 2 4 4 2 2 6 2 2 3 2 3 6 5 6 6 7 6 6 6 7 7 8
16 14 12 13 13 13 13 13 13 13 13 14 14 13 10 10 7 6 1 0 1 1 2 2 1 1 6 3 0 0 1 4 2 3 3 1 4 2 0 1 1 4 5 5 3 1 1 2 3 4 3 1 0 2 2 2 1 3 1 4 5 1 5 7 1 2 6 2 4 3 6 13 12 5 3 1 2 5 6 6 7 7 7 6 7 7 8 9
15 14 14 12 13 13 13 12 12 12 12 15 14 9 4 1 2 1 1 1 1 1 1 0 1 1 3 1 4 5 1 6 0 5 3 4 0 2 2 2 3 1 3 3 3 1 2 0 3 2 5 3 4 6 7 8 2 4 1 3 3 5 5 3 5 2 13 6 4 6 7 11 11 5 3 2 3 6 5 3 3 4 5 5 6 7 8 9
15 14 14 11 13 13 12 11 10 10 11 9 5 1 1 0 1 0 0 0 3 5 1 2 2 2 5 4 3 5 3 2 3 1 3 1 8 2 0 1 2 3 1 2 3 0 0 1 4 7 8 9 4 5 8 5 2 0 1 1 4 4 8 2 4 5 5 3 7 8 8 7 8 3 2 2 1 2 4 4 4 4 6 6 7 8 9 10
15 14 12 9 11 11 10 9 7 8 8 4 4 0 1 0 1 2 3 6 5 5 4 5 7 4 4 2 2 3 3 2 1 0 1 3 6 7 1 1 1 1 1 3 3 2 2 4 8 10 11 8 5 4 4 4 1 4 4 3 7 2 7 2 2 3 4 3 2 2 5 9 10 4 2 1 3 5 7 6 6 7 6 6 8 9 10 9
15 13 11 10 9 10 9 9 8 7 7 2 1 1 2 0 0 1 1 4 4 7 7 6 1 5 3 5 3 4 3 3 2 2 1 3 1 3 2 2 3 5 2 0 2 2 1 6 12 6 3 5 4 4 5 6 3 1 3 1 2 6 5 2 3 3 1 0 4 0 4 8 5 4 2 3 7 4 8 10 10 9 7 7 7 8 7 5
14 13 12 11 9 7 8 8 6 5 2 1 0 1 1 1 1 2 2 0 5 2 2 1 3 5 5 3 2 7 2 2 4 2 4 3 1 5 3 2 3 2 0 0 2 1 7 6 10 3 3 1 0 2 2 0 0 5 1 1 5 3 0 2 2 2 2 1 2 1 2 6 7 4 3 3 4 2 4 7 5 6 8 10 11 9 7 8
14 13 11 10 9 8 8 7 6 3 2 2 0 2 0 1 2 2 3 2 3 5 3 5 3 2 4 0 4 5 4 2 2 4 2 5 5 2 2 4 1 0 4 2 4 5 8 13 3 3 6 3 7 4 1 1 6 2 3 3 2 2 1 1 1 1 1 1 3 2 3 3 5 6 8 5 4 2 1 4 4 3 4 4 3 4 7 10
13 12 10 9 8 8 6 6 1 3 2 1 3 5 5 4 2 4 2 3 1 3 2 0 2 3 3 0 3 2 2 0 6 2 3 7 3 3 2 2 1 3 3 2 3 1 11 11 3 5 5 1 1 6 7 4 4 4 7 10 4 2 6 4 2 4 4 3 3 0 4 3 3 3 6 8 7 4 2 3 4 4 3 3 6 7 5 6
13 11 9 8 7 6 5 2 0 1 1 2 1 0 2 4 3 4 3 2 1 2 1 1 1 1 3 1 1 2 4 1 4 5 4 5 5 4 0 0 2 2 2 2 3 4 6 3 1 2 2 1 1 3 3 5 1 3 3 6 3 3 6 6 2 3 1 1 3 0 4 1 4 6 10 9 7 5 2 4 3 3 3 4 4 2 3 3
13 10 8 7 6 5 1 1 0 0 1 0 1 4 3 5 1 3 1 3 1 1 3 1 1 1 1 1 4 2 0 3 1 1 3 3 6 0 2 3 1 1 2 2 4 4 0 3 3 2 2 2 1 3 4 7 5 1 1 4 5 5 4 6 6 5 1 1 1 5 3 1 2 4 5 10 3 7 7 8 8 6 4 3 2 1 2 3
12 9 7 5 4 2 1 3 1 1 1 1 5 5 4 3 1 1 2 2 1 0 1 1 2 0 0 0 6 3 2 1 1 1 0 2 4 2 1 3 5 2 1 2 2 6 2 2 1 1 1 2 2 5 1 3 1 2 2 7 4 4 5 4 6 4 0 1 3 3 2 1 2 5 7 7 4 9 6 10 7 7 5 3 2 1 2 4
12 8 6 4 3 1 2 1 1 2 1 5 7 5 5 1 3 3 2 1 0 0 1 3 4 1 1 2 3 0 1 0 0 1 1 2 1 3 1 4 3 1 1 3 7 6 2 6 2 3 4 3 4 3 3 7 1 3 2 5 4 5 5 4 4 4 1 2 1 1 1 2 3 5 8 6 4 7 6 7 6 5 4 5 5 5 5 4
11 7 5 4 1 0 1 1 5 5 4 7 7 5 1 2 2 1 1 1 1 1 0 1 1 3 2 4 2 1 1 2 1 1 2 3 2 1 1 2 3 0 2 2 3 8 5 5 5 4 2 2 1 0 3 2 4 0 5 4 1 5 2 3 6 4 4 1 2 3 0 2 1 3 4 3 3 3 5 3 3 4 4 4 3 3 4 4
10 6 6 4 3 1 2 1 5 2 5 6 6 1 2 6 3 2 1 2 1 1 1 0 3 3 5 4 3 1 1 1 1 2 0 0 2 2 2 1 5 3 1 5 2 5 5 2 1 2 3 2 1 1 1 0 0 2 4 1 4 2 7 3 4 4 2 1 2 0 2 4 3 1 5 2 3 2 1 1 2 3 3 3 3 5 5 5
9 5 7 7 2 2 3 2 1 4 6 8 3 4 3 3 2 1 2 2 0 1 1 2 0 2 4 1 3 2 4 0 1 2 4 1 2 2 2 5 1 1 3 2 2 4 2 3 3 5 3 1 1 3 3 6 6 8 4 8 5 3 5 2 7 1 0 1 0 1 0 2 1 3 2 2 1 2 2 2 2 3 3 2 3 5 5 6
5 5 7 7 3 3 7 3 4 5 8 3 3 4 2 2 1 3 1 1 1 3 2 3 3 2 4 3 2 2 0 4 2 0 4 1 1 2 2 2 4 2 2 2 1 4 4 3 5 5 5 3 2 2 4 3 4 5 1 1 4 1 3 0 2 1 3 4 3 1 1 0 1 4 4 2 2 3 3 2 2 2 3 2 3 4 6 7
2 5 5 4 8 9 5 3 3 9 7 4 3 3 4 1 1 5 0 2 0 0 1 1 2 3 5 6 3 4 1 3 3 1 2 1 2 1 0 1 2 1 1 1 1 1 0 3 3 3 1 4 2 2 4 4 0 2 3 2 4 6 2 1 2 2 2 4 3 3 1 2 4 2 1 3 2 3 2 2 2 3 4 4 2 3 5 7
7 5 4 4 5 11 14 8 5 5 2 2 6 4 2 4 2 2 2 2 2 1 0 2 4 3 0 1 1 2 3 1 1 4 1 4 3 2 2 0 1 3 1 4 1 2 1 4 6 2 2 2 3 1 2 2 1 1 2 3 5 2 6 1 3 2 1 0 1 2 1 1 2 1 4 1 2 2 2 2 2 3 4 2 4 7 8 7
3 2 2 3 3 3 6 5 5 2 1 5 4 1 3 4 0 2 0 2 0 1 2 3 4 3 1 1 2 0 2 1 1 3 1 1 2 3 1 2 1 3 3 2 2 1 2 0 2 7 2 1 2 1 0 3 1 2 1 1 2 2 7 5 2 1 2 3 1 0 3 3 5 3 4 2 1 3 1 2 2 3 5 5 7 7 8 7
0 1 1 2 4 2 6 7 7 5 6 6 4 3 5 3 4 3 2 1 3 2 2 4 1 2 2 1 1 1 0 2 0 3 1 0 0 0 0 0 3 0 3 4 1 2 2 4 2 2 1 1 0 1 1 1 3 5 1 3 1 2 4 3 3 2 3 2 3 1 1 4 2 3 2 1 3 3 0 2 2 3 5 8 7 6 6 7
0 1 2 2 2 5 5 8 5 5 4 3 2 5 1 0 1 2 2 4 1 2 3 2 0 3 1 1 1 1 2 5 1 2 2 0 1 0 1 1 1 2 2 1 2 0 2 3 2 1 1 7 5 1 4 2 1 2 1 2 1 1 0 3 3 0 0 1 2 1 1 3 5 4 1 5 5 3 2 3 4 7 7 7 8 9 7 7
1 0 2 2 1 5 5 6 3 4 1 1 2 1 2 3 3 2 3 1 1 1 2 0 2 1 2 1 2 1 0 3 0 2 5 1 3 1 0 3 0 1 4 3 3 1 2 1 5 2 0 4 3 4 1 4 7 1 2 1 0 2 2 1 2 3 3 2 2 3 2 3 6 5 6 6 5 3 1 4 4 4 6 5 5 5 6 8
1 1 3 2 4 2 3 0 4 4 3 1 2 3 1 3 4 7 3 1 2 1 1 1 0 2 1 1 2 1 2 3 4 1 2 1 2 1 1 2 1 1 4 2 3 0 0 0 2 2 2 1 1 1 0 1 1 5 6 3 2 2 1 3 1 1 2 4 3 2 2 6 5 3 3 5 3 1 1 1 2 3 4 5 5 6 7 7
1 3 1 1 3 4 0 1 2 1 0 2 1 2 2 2 4 4 4 5 2 0 2 3 4 1 3 1 1 0 1 2 1 2 1 0 2 2 2 2 2 0 2 4 5 1 2 1 3 3 5 1 3 3 1 2 1 1 2 1 3 0 0 1 3 2 2 2 2 3 4 6 6 1 3 3 2 3 2 2 3 3 4 5 5 5 5 6
1 2 0 1 5 2 2 1 0 0 1 1 2 2 3 4 3 5 2 1 1 0 2 3 0 3 1 1 0 1 2 2 2 2 0 3 1 2 1 1 3 1 1 1 1 2 1 2 1 4 2 4 6 5 1 1 1 1 3 3 1 2 4 3 1 2 1 1 4 2 1 3 1 2 2 1 3 3 2 3 2 3 4 5 6 6 5 5
5 2 2 3 5 1 3 1 1 0 1 4 3 3 2 2 3 3 2 2 1 2 1 2 1 2 1 0 0 2 1 2 1 1 0 1 1 2 4 2 5 5 5 1 1 1 5 2 1 4 6 6 4 1 1 1 2 2 2 2 3 2 0 3 2 3 3 0 0 1 1 3 1 2 3 2 1 1 1 1 1 3 4 6 6 7 8 8
0 0 3 1 2 3 2 0 1 1 4 4 1 7 4 3 1 2 1 2 1 0 1 1 1 0 2 1 2 1 0 2 2 3 2 0 2 2 3 2 1 0 1 3 3 3 1 1 2 1 2 4 6 4 3 4 5 2 1 3 1 2 2 2 4 0 0 3 3 5 3 2 1 3 3 5 6 6 5 5 2 4 5 5 7 7 7 8
1 1 1 1 0 1 1 3 2 2 3 4 4 7 5 1 6 7 3 2 0 1 1 1 0 1 2 1 3 1 4 2 2 3 1 1 0 1 3 6 1 1 2 2 1 3 2 1 2 0 2 3 2 2 2 4 3 4 1 5 3 4 2 2 1 1 1 1 2 2 3 7 6 3 5 5 5 5 4 4 5 2 4 7 7 8 9 7
1 1 3 2 2 2 1 1 1 2 3 3 3 4 0 3 2 2 5 1 2 0 2 2 1 6 3 3 4 5 5 4 3 2 1 0 1 2 2 6 5 0 1 6 3 3 2 2 3 4 2 3 2 2 3 0 2 2 4 3 6 2 2 3 4 4 3 2 1 4 3 2 4 1 4 5 4 4 5 5 5 6 6 6 6 7 8 8
0 3 1 0 5 0 5 2 1 0 2 1 1 1 2 2 3 3 3 0 0 1 2 2 0 1 1 5 2 3 2 2 5 5 1 1 1 1 6 1 2 3 2 3 3 4 2 2 1 4 3 2 3 2 2 1 2 1 1 3 4 4 2 3 1 1 3 5 3 2 2 1 3 2 3 4 4 3 3 4 6 6 7 7 8 8 9 8
1 1 2 0 0 1 2 3 2 3 4 1 4 0 3 1 1 1 2 1 1 2 2 2 5 3 3 4 4 2 1 2 3 1 1 1 0 2 2 4 2 5 2 0 1 2 3 1 1 1 1 1 3 2 1 2 1 1 1 0 3 4 4 4 0 2 2 0 5 2 2 2 3 3 2 3 3 3 5 5 5 6 7 6 6 7 8 8
3 1 0 2 1 3 4 4 4 3 7 3 2 1 2 1 4 4 1 0 2 2 3 2 1 2 3 3 4 3 2 2 1 1 2 0 1 0 1 2 1 4 2 1 2 1 3 1 2 0 1 3 4 1 3 7 2 2 0 0 0 1 2 3 2 2 3 2 2 2 4 7 5 2 2 4 3 2 4 4 5 5 7 6 6 7 8 8
5 3 5 5 1 4 3 3 2 2 1 2 0 2 1 1 3 2 0 1 1 1 1 5 2 0 2 5 5 5 6 3 5 3 2 2 0 0 1 3 1 1 2 0 0 2 3 1 2 1 0 1 3 4 3 2 4 3 1 1 2 2 3 1 2 1 2 1 0 1 1 5 3 2 2 3 3 3 3 4 5 5 6 7 7 8 9 9
2 1 0 3 5 4 2 2 3 1 1 3 2 4 1 2 1 1 0 0 2 4 2 9 7 4 3 4 5 4 4 6 6 2 8 5 2 5 3 3 3 1 1 0 0 0 2 1 2 2 0 1 1 2 2 4 4 3 1 2 1 2 1 1 0 1 1 2 1 2 5 4 2 2 4 4 3 3 5 7 8 8 8 7 7 8 9 10
2 2 1 1 2 2 3 3 2 1 2 1 0 3 1 4 4 1 3 2 3 1 5 11 4 8 2 5 4 5 5 6 7 6 9 8 2 4 4 3 8 4 2 3 0 2 1 5 2 1 2 2 2 0 3 2 1 3 5 4 3 2 1 1 2 2 3 2 0 2 6 3 4 1 4 6 6 7 6 5 7 8 8 7 8 8 9 10
Wind_Direction
322 319 317 316 314 313 315 317 316 316 315 316 315 313 316 318 318 319 320 322 323 323 323 322 323 324 326 329 333 335 337 336 338 25 308 239 180 141 110 122 143 142 134 116 114 118 132 197 165 138 100 138 253 35 264 30 85 63 45 114 346 206 140 206 176 191 202 143 200 181 174 139 170 152 183 142 69 59 166 191 118 35 34 113 107 122 130 138
321 319 317 315 315 315 314 313 315 315 314 313 313 313 317 316 317 319 319 321 323 322 322 322 322 323 325 329 333 335 336 313 307 293 235 207 163 129 125 136 141 145 130 124 148 152 139 206 184 134 123 144 322 80 155 300 79 121 130 97 241 188 237 175 184 193 138 242 177 183 155 173 224 146 196 133 185 140 148 224 129 71 74 95 115 127 136 144
321 319 317 317 316 315 314 314 314 314 313 312 310 315 315 315 316 317 319 321 320 322 321 321 322 323 325 328 330 335 341 321 288 277 266 200 192 127 136 147 155 158 150 154 172 160 163 187 165 131 53 51 290 178 75 262 147 228 108 296 254 213 246 229 189 197 219 136 142 162 191 159 243 161 125 172 163 164 184 180 133 145 147 134 134 139 144 150
321 319 318 316 316 315 315 314 313 313 312 310 312 313 314 315 315 317 318 319 319 319 320 320 320 323 325 325 325 329 311 317 235 259 265 223 184 142 146 157 164 160 94 103 163 121 67 111 144 126 87 123 304 69 112 237 117 251 104 203 237 213 135 260 181 234 236 51 142 129 86 175 250 218 160 180 129 223 231 204 177 180 160 148 149 149 151 154
320 319 318 317 315 315 315 313 313 312 311 309 312 312 313 313 314 315 316 316 317 318 318 319 321 323 325 323 324 310 163 65 195 243 252 96 159 143 143 156 163 169 114 147 118 77 102 126 134 75 62 265 348 10 244 213 187 120 216 205 206 112 325 259 206 191 126 74 99 128 146 219 125 89 209 169 175 208 208 208 191 153 155 151 156 159 157 160
319 320 318 317 315 315 314 313 313 312 310 310 310 312 311 312 312 314 314 314 316 316 317 317 321 325 325 324 323 145 79 98 281 280 43 96 121 130 136 149 153 164 101 51 112 127 105 76 96 78 355 72 214 202 267 180 150 249 298 247 226 209 173 249 168 200 134 118 142 160 213 108 161 244 211 199 209 219 359 155 171 156 164 163 154 154 163 165
319 319 318 316 315 315 314 313 312 310 309 309 309 310 311 311 309 310 312 314 313 313 314 318 322 325 331 325 138 4 113 268 319 261 70 107 122 123 123 129 120 134 131 107 93 133 142 139 114 180 101 332 277 224 244 174 157 154 258 303 306 174 211 188 162 140 143 139 201 184 123 164 184 252 188 214 241 245 328 169 158 157 151 149 156 168 169 173
319 319 318 317 315 314 314 312 310 311 310 309 309 309 309 308 309 310 312 311 310 308 315 320 325 326 340 341 3 350 39 258 247 320 100 106 113 116 114 116 130 130 141 186 158 173 129 144 169 162 169 233 233 172 220 107 139 201 259 234 250 132 248 201 132 153 163 196 59 95 134 220 187 187 16 242 245 235 302 118 140 145 151 161 164 170 171 172
319 319 318 317 316 315 313 312 312 311 308 308 307 307 305 307 310 311 309 308 307 309 313 321 325 324 328 284 115 33 239 238 220 149 106 103 113 120 123 113 154 133 162 160 197 165 153 252 187 188 252 276 232 259 198 138 297 201 230 155 92 257 351 138 120 163 164 151 144 106 226 271 258 316 278 246 252 192 142 128 141 147 155 166 172 172 172 175
319 320 318 317 316 314 313 312 312 309 308 306 305 302 305 310 308 308 308 307 305 309 313 321 326 323 338 109 38 105 249 153 61 122 111 117 123 119 85 137 150 132 132 211 132 140 184 214 173 214 173 279 171 236 152 155 238 178 218 202 137 305 352 101 176 199 172 164 176 171 234 236 327 138 272 286 240 140 141 146 154 155 167 172 172 177 176 174
319 319 318 316 315 315 313 314 311 308 306 305 301 304 309 306 306 306 307 305 302 304 312 317 331 342 45 2 108 192 278 67 50 112 124 125 127 137 168 158 159 162 164 148 193 195 215 142 180 80 92 226 150 275 145 220 185 205 146 98 57 339 139 118 81 177 126 262 172 178 233 230 295 109 242 234 59 158 146 152 164 169 170 176 176 178 179 180
319 319 317 316 315 313 313 312 309 308 305 303 304 308 305 304 305 304 301 300 299 303 310 318 335 326 346 71 146 214 347 126 77 109 129 129 129 179 158 164 173 170 163 191 222 216 210 170 106 84 242 38 291 295 259 240 111 299 136 244 308 0 343 229 192 203 149 245 149 144 340 287 169 227 241 235 123 149 149 160 170 177 177 177 178 179 180 184
319 319 317 315 314 313 313 311 310 306 305 306 307 305 304 305 302 298 296 297 292 301 307 316 314 259 38 356 234 239 286 309 112 107 103 75 114 131 164 180 176 161 187 187 221 194 145 161 125 141 240 246 267 288 261 79 254 97 46 137 13 3 327 288 17 89 141 272 144 115 335 278 240 236 231 138 126 134 142 167 175 180 179 179 177 182 185 180
319 318 316 315 314 314 312 310 309 306 306 308 304 303 303 301 296 291 289 284 289 294 297 299 81 333 91 237 277 249 268 177 104 93 158 122 120 352 122 173 163 164 219 215 277 136 126 172 166 219 162 204 266 269 19 336 20 186 264 72 138 21 274 298 183 155 142 163 155 88 198 286 273 271 272 258 142 148 163 176 175 177 178 178 179 183 188 193
318 317 315 314 315 313 311 311 309 309 309 305 304 302 300 297 292 288 285 286 280 275 297 314 26 68 49 270 264 287 215 97 12 241 187 141 136 45 123 122 170 206 215 209 228 124 131 133 131 263 252 251 335 359 304 1 349 30 17 302 330 174 279 303 247 169 171 22 131 104 322 245 280 297 299 224 158 154 164 174 178 175 179 181 180 186 193 197
318 316 314 314 315 313 311 310 312 310 308 305 304 302 295 287 284 282 282 270 272 269 183 317 295 114 81 316 143 66 46 135 261 234 241 148 140 175 177 164 176 201 199 277 227 251 269 177 208 211 281 356 54 80 15 9 344 353 101 271 292 32 276 335 276 230 79 114 356 179 226 321 317 296 342 91 153 162 158 171 178 181 184 182 185 189 194 195
317 314 313 315 313 311 310 313 312 311 309 309 307 296 289 280 272 270 268 255 269 167 221 96 80 187 119 239 255 334 238 247 255 30 122 190 141 169 37 22 125 34 211 271 130 198 305 196 315 28 45 135 156 90 347 4 318 325 17 238 208 190 281 260 303 242 217 146 193 239 226 238 228 298 12 55 154 149 164 175 180 184 187 190 186 190 193 199
316 313 314 314 310 310 312 312 312 312 314 311 305 292 288 278 264 274 321 147 169 200 299 239 197 332 282 323 338 217 151 298 270 192 110 239 140 132 98 12 33 45 30 356 352 27 310 270 36 212 1 359 55 64 97 257 247 293 348 344 320 324 204 240 282 249 141 230 167 183 239 269 261 268 309 194 157 164 174 180 183 182 186 189 195 195 200 203
316 314 314 311 309 310 313 311 313 319 320 314 300 288 289 138 77 183 162 170 113 5 12 273 121 85 174 213 296 304 198 216 356 118 191 113 146 102 62 95 58 10 318 34 272 53 345 65 23 15 291 284 238 170 175 224 165 298 198 216 208 295 287 210 240 244 171 173 199 174 212 241 266 281 288 257 182 175 178 146 158 188 191 193 198 203 204 210
319 315 312 305 309 310 311 313 316 324 330 330 357 53 118 23 5 355 322 42 219 204 138 191 195 330 305 283 298 274 260 68 122 302 113 135 103 116 98 75 6 64 103 211 302 3 135 192 236 234 241 249 235 187 206 224 176 157 103 178 248 244 286 293 265 253 187 98 222 211 234 259 278 279 289 269 150 188 179 181 184 194 194 196 202 208 212 215
316 314 306 309 313 310 308 313 324 320 330 305 301 120 45 127 57 302 300 239 224 232 237 236 189 210 239 312 284 6 42 321 57 306 194 118 100 117 259 73 35 267 267 199 194 299 64 342 268 232 242 246 244 189 217 272 204 240 256 258 292 160 270 270 300 336 210 162 317 218 244 266 259 314 286 2 137 210 207 204 213 203 202 204 204 211 215 220
318 311 314 312 309 306 308 310 321 320 319 293 267 126 156 193 155 156 87 334 311 237 220 253 329 284 298 239 231 139 107 35 290 292 308 138 141 147 293 107 151 192 278 334 10 17 25 241 260 262 206 219 211 176 191 193 230 178 224 241 324 272 244 306 328 320 152 65 275 296 210 269 321 303 265 179 195 206 203 203 209 191 196 208 215 220 220 209
319 316 305 309 302 304 309 312 304 355 318 171 84 105 92 148 20 305 157 162 275 256 172 197 226 244 282 263 237 119 97 171 210 275 207 112 82 189 150 116 172 203 285 109 233 351 328 276 242 252 136 80 357 146 150 164 189 234 164 113 226 240 37 309 303 27 44 118 293 252 197 295 328 316 314 284 244 240 203 205 209 188 199 203 211 209 206 216
319 313 309 301 304 306 305 309 313 294 237 207 258 200 150 348 329 34 123 221 292 307 199 216 166 190 232 139 201 124 138 253 118 241 239 124 148 167 108 164 132 53 255 171 170 187 226 258 257 322 326 9 309 311 348 355 294 298 183 170 237 248 254 156 252 50 14 349 98 59 37 340 359 6 352 321 300 281 279 163 189 221 214 215 216 220 210 216
322 315 308 303 301 300 303 332 288 231 172 91 253 257 272 267 222 199 131 333 356 291 209 76 209 234 225 30 112 144 220 69 217 217 181 138 151 84 227 197 116 257 215 122 109 299 285 270 300 288 296 321 205 304 281 159 231 290 223 190 193 190 117 99 113 84 27 320 277 96 31 325 299 317 2 325 345 4 341 167 217 225 232 205 216 223 221 228
325 314 308 300 295 294 322 309 273 113 131 230 204 253 293 306 280 173 98 79 295 271 334 282 150 295 135 211 112 153 76 247 221 210 153 203 142 141 69 68 126 247 235 150 198 201 229 301 60 251 244 161 149 214 250 145 184 57 290 178 172 112 115 129 152 84 37 118 324 338 135 263 333 12 351 336 333 336 338 31 353 329 281 252 252 286 265 257
324 315 298 299 294 314 321 143 238 119 65 319 333 334 309 301 98 143 33 358 30 228 147 246 64 233 104 204 138 101 76 273 301 85 120 216 170 275 118 263 355 292 165 158 40 295 320 302 66 46 89 98 95 291 227 144 94 310 254 124 104 103 128 186 162 164 175 225 357 39 101 145 315 305 345 325 355 15 25 1 347 331 309 275 284 229 233 234
325 310 297 283 319 323 342 338 332 175 229 266 327 323 305 280 121 66 79 85 228 347 166 241 222 10 103 326 140 153 196 214 73 266 305 228 98 9 134 219 183 200 181 70 261 255 161 300 188 95 66 91 209 217 185 150 148 218 211 153 159 165 208 147 149 172 132 145 295 334 359 66 268 284 327 356 25 0 359 350 343 342 346 0 19 297 231 214
324 308 286 273 223 325 310 275 49 226 295 318 306 319 313 343 109 97 141 128 240 106 35 109 279 87 18 39 205 341 355 70 130 271 313 55 52 141 213 238 172 206 256 169 211 286 270 185 233 165 146 218 238 268 182 150 23 283 162 70 68 67 52 123 135 133 355 69 276 278 41 141 285 300 344 344 46 357 335 326 335 345 5 32 37 27 24 10
320 295 264 227 186 21 217 124 229 250 320 300 302 306 315 65 33 50 19 246 97 235 222 244 118 215 91 126 293 5 243 317 123 6 32 156 315 26 59 138 138 177 233 5 239 234 268 294 182 134 202 211 155 162 159 257 264 123 87 112 41 59 57 33 66 103 58 53 255 249 286 135 292 291 302 355 336 275 305 321 327 336 356 17 26 29 14 8
318 276 234 204 190 197 152 281 241 290 288 296 298 325 91 38 118 107 144 230 67 269 20 73 196 55 121 147 222 312 98 333 337 117 105 319 16 32 5 323 33 49 24 353 297 309 342 344 62 270 348 56 84 114 300 207 315 94 41 58 14 340 19 33 348 38 91 286 262 268 83 160 177 298 303 263 294 290 256 344 323 330 336 347 4 7 1 359
304 244 217 204 289 6 180 140 320 314 307 296 356 60 69 260 16 140 197 328 210 271 162 214 280 136 172 19 112 172 176 347 247 121 154 138 107 111 175 173 175 24 342 342 297 344 357 14 292 294 292 47 18 64 320 2 12 41 39 28 79 279 31 276 10 6 38 167 105 295 10 27 54 215 212 291 273 291 288 235 258 288 305 333 356 2 357 4
274 228 214 223 258 244 251 283 341 340 306 335 66 52 68 101 209 263 301 316 261 167 257 134 188 135 154 102 252 234 341 185 284 347 110 4 112 283 244 207 198 183 215 253 299 21 275 280 357 322 6 35 89 90 304 16 343 35 355 123 75 48 35 302 275 231 307 296 255 281 340 76 273 294 228 225 253 229 237 270 279 290 287 307 3 9 11 9
233 189 193 208 220 243 279 316 338 340 359 30 77 54 46 78 245 206 257 222 171 351 96 152 73 65 129 169 240 156 193 273 144 181 98 177 90 202 315 340 161 23 91 135 234 187 52 340 306 8 11 316 72 150 183 188 182 237 146 147 209 143 160 255 224 244 217 213 279 296 43 232 144 237 198 210 238 264 256 241 269 279 290 289 323 12 23 13
193 198 220 268 255 244 238 242 269 325 12 65 58 89 145 238 234 190 243 304 276 269 162 334 118 114 353 352 285 236 179 229 128 105 24 119 210 157 193 277 339 109 133 134 261 71 218 215 257 247 241 10 18 330 115 97 54 312 145 83 82 231 147 181 212 152 209 222 346 351 213 167 161 240 265 268 332 310 307 327 317 287 274 317 20 22 12 1
148 201 191 261 246 266 180 190 165 190 84 57 82 100 209 195 11 157 25 190 342 35 310 44 73 97 253 311 319 93 333 136 276 88 349 75 177 127 227 208 246 175 144 144 203 157 16 321 303 326 354 8 334 277 287 123 242 258 105 239 223 176 102 89 87 45 86 48 242 224 335 309 298 324 238 256 36 263 298 279 282 298 337 16 25 13 2 349
141 153 324 223 254 204 147 155 162 132 67 93 99 224 217 283 206 175 254 320 273 139 71 115 312 123 201 274 262 328 284 82 225 97 170 135 21 251 315 285 178 268 194 134 284 186 144 245 296 66 218 275 198 201 4 335 126 78 81 245 126 111 114 125 210 350 59 171 255 38 224 300 30 257 325 259 281 244 202 301 293 357 9 19 7 6 349 335
182 235 273 264 240 131 140 172 150 63 81 85 188 250 188 282 249 220 287 347 350 43 99 105 280 92 226 131 332 227 308 145 258 77 152 75 150 155 110 179 336 122 268 192 124 272 108 341 303 272 237 276 346 33 326 311 342 178 194 198 114 268 256 320 91 240 76 271 276 325 272 257 186 248 291 231 217 251 325 338 12 11 12 6 358 344 332 334
271 32 41 323 77 130 149 177 77 79 59 102 255 342 264 245 270 249 268 269 189 108 79 248 140 333 131 123 240 340 109 149 146 124 116 262 111 166 349 168 5 21 5 118 65 200 42 153 295 294 169 328 356 62 254 298 329 23 72 59 322 104 157 125 206 175 124 232 57 292 34 241 209 217 192 217 216 235 283 16 17 3 11 351 331 311 326 349
12 40 16 355 108 121 145 92 61 47 72 160 227 231 228 294 270 271 267 220 285 102 222 129 62 110 57 195 154 130 355 96 111 184 93 278 104 302 252 350 187 331 32 84 114 265 93 111 234 278 305 12 41 338 182 164 359 332 27 341 356 8 224 96 39 73 181 170 180 161 332 275 266 241 208 212 210 207 174 96 25 13 334 323 304 318 345 335
311 100 345 69 95 100 33 40 57 89 219 260 171 244 316 265 331 291 317 224 207 244 171 171 161 116 195 101 11 86 71 68 82 82 146 198 135 102 247 191 206 25 360 25 51 23 91 70 215 317 6 344 240 239 152 156 167 167 147 132 186 288 66 148 253 9 72 97 196 128 235 267 269 213 265 258 189 137 190 106 30 338 330 297 297 324 331 310
70 64 331 78 126 142 68 58 32 219 105 232 254 179 290 285 287 278 317 312 174 328 53 102 80 124 109 84 148 28 107 58 22 92 272 143 241 129 288 28 136 148 115 176 145 249 145 152 81 289 203 269 250 263 84 242 184 188 119 6 134 110 104 91 120 273 29 23 105 154 126 275 252 297 317 215 158 145 136 98 27 316 296 300 312 311 298 275
42 131 282 127 173 271 60 42 294 10 197 233 305 287 225 270 232 259 343 306 323 111 12 62 183 96 259 136 176 76 109 78 25 156 190 117 196 216 269 32 134 67 81 325 9 280 93 59 16 299 315 296 326 325 39 109 112 22 355 40 50 345 215 168 173 183 139 156 67 343 228 246 287 0 8 45 72 115 53 80 339 299 300 315 317 311 303 304
253 303 349 338 189 27 90 193 308 294 284 300 248 259 209 247 223 314 230 292 160 31 155 170 9 85 133 80 83 92 191 90 344 72 51 343 86 216 356 24 233 86 100 218 138 247 93 293 125 359 5 340 351 349 1 330 45 83 305 312 308 301 64 159 103 138 140 216 173 125 240 291 277 350 13 28 20 19 357 331 336 319 320 318 314 304 298 299
317 280 348 296 128 25 302 189 144 252 275 303 308 303 318 290 217 209 184 261 74 167 95 359 214 132 35 48 75 61 25 125 138 327 120 165 232 347 63 65 257 163 213 217 123 105 85 177 95 162 159 158 196 293 294 331 296 287 288 337 350 44 2 2 287 33 67 286 129 155 253 253 275 338 5 17 14 4 347 336 325 297 285 305 309 305 302 305
37 126 306 358 356 10 249 153 171 202 291 307 326 267 200 285 321 304 161 233 148 158 80 145 14 84 64 54 37 24 13 13 103 182 94 97 308 353 319 337 38 55 11 96 83 75 130 120 100 153 148 177 206 209 256 131 14 45 306 11 329 356 22 99 102 88 202 206 193 233 185 299 318 311 343 339 354 341 327 333 329 323 315 307 300 303 304 313
39 80 10 336 334 85 268 299 256 72 238 174 277 290 306 260 271 330 215 110 354 138 60 49 254 93 329 76 92 54 351 23 6 76 349 134 262 252 303 44 327 45 55 117 106 87 72 91 209 136 174 195 183 196 205 185 147 245 23 327 335 2 8 85 109 196 162 84 318 269 208 139 264 287 294 318 325 315 306 311 322 325 320 311 304 299 306 315
71 301 94 214 149 240 359 315 105 282 266 174 244 251 248 271 3 354 332 62 45 10 114 349 37 28 169 155 138 91 354 35 26 106 311 222 46 348 52 359 42 304 343 3 43 122 134 123 236 136 284 239 229 235 248 106 98 147 137 345 34 350 39 88 84 184 134 183 206 265 147 194 259 231 263 278 270 281 287 295 297 287 284 293 304 315 321 324
92 311 162 324 201 258 183 271 328 269 293 194 244 218 284 271 266 222 155 329 24 359 72 127 290 323 128 121 108 150 167 90 318 305 176 174 92 36 85 341 256 12 90 17 16 119 91 8 195 113 287 0 358 122 177 124 115 43 336 295 277 142 125 130 134 181 184 219 208 221 191 231 242 237 261 276 279 265 280 289 294 307 313 313 312 318 322 323
8 17 324 347 301 276 280 306 287 16 352 308 193 262 218 225 259 301 346 116 80 39 52 93 201 53 147 119 104 131 205 169 172 170 226 124 3 60 198 187 178 357 46 126 3 336 101 257 80 98 72 2 347 44 41 68 118 126 298 291 249 204 148 168 142 215 167 79 267 215 206 275 265 215 266 279 303 312 310 309 309 306 319 320 318 316 319 318
301 241 284 346 341 286 286 342 344 86 44 337 45 290 324 283 254 208 174 217 154 165 149 152 169 111 31 74 80 109 180 167 163 167 179 148 137 221 132 276 156 163 2 88 45 318 70 249 60 72 17 310 324 60 58 74 68 82 332 308 329 41 63 313 88 192 129 255 312 350 335 281 278 305 302 281 299 333 324 323 325 327 324 313 306 304 307 309
314 274 3 153 292 329 358 315 309 58 347 235 351 287 313 288 273 290 84 13 55 77 156 143 184 100 35 81 126 179 198 173 180 178 173 199 172 176 197 175 163 161 193 166 216 162 154 125 134 121 96 269 283 169 129 65 36 329 278 238 209 245 212 271 272 268 225 162 143 235 237 220 236 312 342 319 339 326 321 309 309 310 309 297 286 290 296 299